Stündliche Wetter Abla

Heute, 17 Juni, Donnerstag

Zeit Temperatur Niederschläge Wind Luftdruck Luftfeuchtigkeit
00:00 +15°C° 0.3 mm 1 m/S 622 mmHg 73%
01:00 +14°C° 0.3 mm 1 m/S 621 mmHg 76%
02:00 +13°C° 0.3 mm 1 m/S 621 mmHg 80%
03:00 +13°C° 0.3 mm 1 m/S 621 mmHg 84%
04:00 +13°C° 0.2 mm 2 m/S 621 mmHg 82%
05:00 +12°C° 0.2 mm 2 m/S 621 mmHg 80%
06:00 +12°C° 0.2 mm 2 m/S 620 mmHg 78%
07:00 +13°C° 0 mm 2 m/S 621 mmHg 70%
08:00 +14°C° 0 mm 2 m/S 621 mmHg 62%
09:00 +14°C° 0 mm 3 m/S 622 mmHg 54%
10:00 +16°C° 0 mm 3 m/S 622 mmHg 49%
11:00 +17°C° 0 mm 4 m/S 623 mmHg 45%
12:00 +18°C° 0 mm 4 m/S 623 mmHg 41%
13:00 +19°C° 0 mm 4 m/S 623 mmHg 41%
14:00 +19°C° 0 mm 4 m/S 623 mmHg 40%
15:00 +19°C° 0 mm 4 m/S 623 mmHg 40%
16:00 +19°C° 0 mm 3 m/S 623 mmHg 41%
17:00 +19°C° 0 mm 3 m/S 623 mmHg 43%
18:00 +18°C° 0 mm 3 m/S 623 mmHg 44%
19:00 +18°C° 0 mm 2 m/S 623 mmHg 47%
20:00 +17°C° 0 mm 2 m/S 623 mmHg 50%
21:00 +16°C° 0 mm 2 m/S 623 mmHg 53%
22:00 +16°C° 0 mm 1 m/S 623 mmHg 54%
23:00 +16°C° 0 mm 1 m/S 623 mmHg 55%

Morgen, 18 Juni, Freitag

Zeit Temperatur Niederschläge Wind Luftdruck Luftfeuchtigkeit
00:00 +15°C° 0 mm 1 m/S 623 mmHg 56%
01:00 +15°C° 0 mm 1 m/S 622 mmHg 59%
02:00 +14°C° 0 mm 1 m/S 622 mmHg 62%
03:00 +14°C° 0 mm 1 m/S 622 mmHg 65%
04:00 +14°C° 0 mm 1 m/S 622 mmHg 64%
05:00 +14°C° 0 mm 1 m/S 622 mmHg 62%
06:00 +14°C° 0 mm 1 m/S 622 mmHg 61%
07:00 +16°C° 0 mm 2 m/S 623 mmHg 53%
08:00 +17°C° 0 mm 2 m/S 623 mmHg 45%
09:00 +18°C° 0 mm 2 m/S 624 mmHg 37%
10:00 +19°C° 0 mm 3 m/S 624 mmHg 35%
11:00 +20°C° 0 mm 3 m/S 624 mmHg 32%
12:00 +21°C° 0 mm 3 m/S 624 mmHg 30%
13:00 +21°C° 0 mm 3 m/S 624 mmHg 31%
14:00 +21°C° 0 mm 3 m/S 624 mmHg 33%
15:00 +20°C° 0 mm 3 m/S 624 mmHg 34%
16:00 +20°C° 0 mm 3 m/S 624 mmHg 34%
17:00 +20°C° 0 mm 2 m/S 624 mmHg 34%
18:00 +20°C° 0 mm 2 m/S 624 mmHg 34%
19:00 +19°C° 0 mm 2 m/S 624 mmHg 41%
20:00 +18°C° 0 mm 2 m/S 624 mmHg 47%
21:00 +17°C° 0 mm 2 m/S 624 mmHg 53%
22:00 +16°C° 0.1 mm 2 m/S 624 mmHg 56%
23:00 +15°C° 0.1 mm 1 m/S 624 mmHg 59%

übermorgen, 19 Juni, Samstag

Zeit Temperatur Niederschläge Wind Luftdruck Luftfeuchtigkeit
00:00 +15°C° 0.1 mm 1 m/S 624 mmHg 61%
01:00 +15°C° 0.1 mm 1 m/S 623 mmHg 63%
02:00 +14°C° 0.1 mm 1 m/S 623 mmHg 65%
03:00 +14°C° 0.1 mm 1 m/S 622 mmHg 66%
04:00 +14°C° 0 mm 1 m/S 622 mmHg 67%
05:00 +13°C° 0 mm 1 m/S 622 mmHg 68%
06:00 +13°C° 0 mm 1 m/S 622 mmHg 69%
07:00 +14°C° 0 mm 1 m/S 623 mmHg 66%
08:00 +14°C° 0 mm 2 m/S 623 mmHg 63%
09:00 +15°C° 0 mm 2 m/S 623 mmHg 61%
10:00 +16°C° 0.1 mm 2 m/S 624 mmHg 56%
11:00 +17°C° 0.1 mm 3 m/S 624 mmHg 52%
12:00 +17°C° 0.1 mm 3 m/S 624 mmHg 47%
13:00 +18°C° 0.1 mm 3 m/S 624 mmHg 44%
14:00 +19°C° 0.1 mm 3 m/S 624 mmHg 42%
15:00 +19°C° 0.1 mm 3 m/S 624 mmHg 39%
16:00 +19°C° 0 mm 3 m/S 624 mmHg 36%
17:00 +19°C° 0 mm 4 m/S 624 mmHg 33%
18:00 +19°C° 0 mm 4 m/S 624 mmHg 30%
19:00 +17°C° 0 mm 3 m/S 624 mmHg 34%
20:00 +16°C° 0 mm 3 m/S 624 mmHg 38%
21:00 +14°C° 0 mm 3 m/S 623 mmHg 42%
22:00 +14°C° 0 mm 2 m/S 623 mmHg 47%
23:00 +13°C° 0 mm 2 m/S 623 mmHg 52%

20 Juni, Sonntag

Zeit Temperatur Niederschläge Wind Luftdruck Luftfeuchtigkeit
00:00 +12°C° 0 mm 2 m/S 623 mmHg 57%
01:00 +12°C° 0 mm 2 m/S 623 mmHg 58%
02:00 +12°C° 0 mm 2 m/S 622 mmHg 60%
03:00 +10°C° 0 mm 2 m/S 622 mmHg 61%
04:00 +10°C° 0 mm 2 m/S 622 mmHg 61%
05:00 +10°C° 0 mm 2 m/S 622 mmHg 61%
06:00 +10°C° 0 mm 2 m/S 622 mmHg 61%
07:00 +13°C° 0 mm 2 m/S 623 mmHg 56%
08:00 +14°C° 0 mm 2 m/S 623 mmHg 50%
09:00 +15°C° 0 mm 2 m/S 624 mmHg 45%
10:00 +16°C° 0 mm 2 m/S 624 mmHg 43%
11:00 +16°C° 0 mm 2 m/S 624 mmHg 41%
12:00 +17°C° 0 mm 2 m/S 624 mmHg 38%
13:00 +18°C° 0 mm 3 m/S 624 mmHg 37%
14:00 +19°C° 0 mm 3 m/S 624 mmHg 35%
15:00 +20°C° 0 mm 3 m/S 624 mmHg 33%
16:00 +20°C° 0 mm 3 m/S 624 mmHg 35%
17:00 +19°C° 0 mm 3 m/S 624 mmHg 38%
18:00 +19°C° 0 mm 3 m/S 624 mmHg 40%
19:00 +18°C° 0 mm 3 m/S 624 mmHg 43%
20:00 +17°C° 0 mm 3 m/S 624 mmHg 46%
21:00 +16°C° 0 mm 2 m/S 623 mmHg 50%
22:00 +15°C° 0 mm 2 m/S 623 mmHg 51%
23:00 +15°C° 0 mm 2 m/S 623 mmHg 53%

21 Juni, Montag

Zeit Temperatur Niederschläge Wind Luftdruck Luftfeuchtigkeit
00:00 +14°C° 0 mm 2 m/S 623 mmHg 55%
01:00 +14°C° 0 mm 1 m/S 622 mmHg 58%
02:00 +13°C° 0 mm 1 m/S 622 mmHg 62%
03:00 +13°C° 0 mm 1 m/S 622 mmHg 65%
04:00 +13°C° 0 mm 1 m/S 622 mmHg 66%
05:00 +13°C° 0 mm 1 m/S 622 mmHg 66%
06:00 +13°C° 0 mm 1 m/S 622 mmHg 67%
07:00 +14°C° 0 mm 1 m/S 622 mmHg 62%
08:00 +15°C° 0 mm 1 m/S 623 mmHg 57%
09:00 +16°C° 0 mm 2 m/S 623 mmHg 51%
10:00 +18°C° 0 mm 2 m/S 624 mmHg 47%
11:00 +19°C° 0 mm 3 m/S 624 mmHg 43%
12:00 +20°C° 0 mm 3 m/S 624 mmHg 39%
13:00 +20°C° 0 mm 3 m/S 624 mmHg 38%
14:00 +21°C° 0 mm 3 m/S 624 mmHg 36%
15:00 +21°C° 0 mm 3 m/S 624 mmHg 34%
16:00 +21°C° 0 mm 4 m/S 624 mmHg 34%
17:00 +20°C° 0 mm 4 m/S 624 mmHg 33%
18:00 +20°C° 0 mm 4 m/S 624 mmHg 33%
19:00 +19°C° 0 mm 3 m/S 624 mmHg 34%
20:00 +18°C° 0 mm 3 m/S 624 mmHg 36%
21:00 +16°C° 0 mm 2 m/S 624 mmHg 38%
22:00 +16°C° 0 mm 2 m/S 624 mmHg 38%
23:00 +15°C° 0 mm 2 m/S 624 mmHg 37%

22 Juni, Dienstag

Zeit Temperatur Niederschläge Wind Luftdruck Luftfeuchtigkeit
00:00 +15°C° 0 mm 2 m/S 624 mmHg 37%
01:00 +14°C° 0 mm 2 m/S 623 mmHg 37%
02:00 +14°C° 0 mm 2 m/S 623 mmHg 38%
03:00 +13°C° 0 mm 2 m/S 623 mmHg 38%
04:00 +14°C° 0 mm 2 m/S 623 mmHg 38%
05:00 +14°C° 0 mm 2 m/S 624 mmHg 38%
06:00 +14°C° 0 mm 2 m/S 624 mmHg 39%
07:00 +15°C° 0 mm 2 m/S 624 mmHg 36%
08:00 +18°C° 0 mm 1 m/S 625 mmHg 33%
09:00 +19°C° 0 mm 1 m/S 626 mmHg 30%
10:00 +19°C° 0 mm 2 m/S 626 mmHg 28%
11:00 +20°C° 0 mm 2 m/S 627 mmHg 27%
12:00 +22°C° 0 mm 3 m/S 627 mmHg 26%
13:00 +22°C° 0 mm 3 m/S 627 mmHg 27%
14:00 +22°C° 0 mm 3 m/S 627 mmHg 28%
15:00 +22°C° 0 mm 4 m/S 627 mmHg 29%
16:00 +22°C° 0 mm 4 m/S 627 mmHg 33%
17:00 +21°C° 0 mm 3 m/S 627 mmHg 37%
18:00 +20°C° 0 mm 3 m/S 627 mmHg 41%
19:00 +19°C° 0 mm 3 m/S 627 mmHg 49%
20:00 +17°C° 0 mm 3 m/S 627 mmHg 56%
21:00 +16°C° 0 mm 3 m/S 627 mmHg 63%
22:00 +14°C° 0 mm 3 m/S 627 mmHg 65%
23:00 +15°C° 0 mm 2 m/S 627 mmHg 67%
Mehr zeigen

Wir brauchen deine Erlaubnis

Meteoprog und unser Service Anbieter werden persönliche Daten aufbewahren, so wie Cookies, Geräte Bezeichnung oder ähnliche Technologien von deinem Gerät und Prozess, so wie Persönliche Daten Inhalte und Werbungen, genauso wie social Media und den Verkehr zu analysieren.

  • Aufbewahrung und/oder Zugang zu deiner Geräte Informationen.

    Cookies, Geräte Bezeichnung oder andere Informationen, können aufbewahrt oder Zugang zu deinem Gerät erhalten, für den Grund, der oben angegeben wird.

  • Personalisierte Werbung und Inhalte, Messungen, Einblick in das Publikum und Produkt Entwicklung.

    Werbungen und Inhalte können personalisiert werden, basierend auf ein Profil. Mehr Daten können besser personalisierte Werbungen und Inhalte hinzufügen. Werbung und Inhalte können gezeigt und gemessen werden. Einblicke über das Publikum, welche die Werbung gesehen haben und den Inhalt, können abgeleitet werden. So wie Daten können genutzt werden, um es zu verbessern oder die Benutzer Erfahrung zu verbessern das System und die Software.

Wenn du “Ich stimme zu” klickst, erlaubst du uns, die Cookies zu benutzen die Geräte Bezeichnung, den Web oder ähnliche Technologien zu benutzen. Deine Settings, können in deinem Gerät bei deinem Browser geändert werden.

Für den bestimmten Zweck, berechtigten Interessen beruhen darauf, mehr als auf den Inhalt. Du kannst mehr darüber in unseren Privaten und Cookie Politik lesen.